Zurück zum Katalog

STARLINK-35657

AktivKommunikationVLEO
NORAD 66399·PAYLOAD·🇺🇸 United States

Gestartet Nov 8, 2025 von Cape Canaveral Space Force Station

Loading…

Nächste Überflüge (nächste 24 Stunden)

TLE

AktuellSource: CelesTrak SupGP

Epoche: Sep 14, 2026, 22:57 UTC

1 66399C 25257V   26257.95673611  .00022310  00000+0  66045-3 0  2572
2 66399  53.1578  53.9157 0000988  86.0422  44.9199 15.34317428    16

Verfolge STARLINK-35657 in Echtzeit mit AllMySat

Download on the App Store